[[{"header":{"parameterUnit":"m.s-1","parameterCategory":1,"la1":30.2991,"la2":30.254,"lo1":-89.0895,"lo2":-89.0444,"dy":0.0017,"dx":0.0017,"nx":28,"ny":28,"refTime":"2023-10-14T03:00:00:Z","depth":0,"parameterNumber":2,"parameterNumberName":"U-component_of_WINDS"},"data":[0,0,0,0,0,0,0,0,0,0,0,0,0,0,0,0,0,0,0,0,0,0,0,0,0,0,0,0,0,0,0,0,0,0,0,0,0,0,0,0,0,0,0,0,0,0,0,0,0,0,0,0,0,0,0,0,0,0,1.9076,1.9076,0,1.9073,1.9073,1.9073,1.905,1.9049,1.9049,1.9048,1.9044,1.9044,1.9044,0,0,0,0,0,0,0,0,0,0,0,0,0,1.9063,1.9064,1.9076,1.9076,1.9076,1.9073,1.9073,1.9073,1.905,1.9049,1.9048,1.9048,1.9043,1.9044,1.9044,0,0,0,0,0,0,0,0,0,0,0,0,0,1.9065,1.9064,1.9076,1.9064,1.9063,1.9073,1.9073,1.9073,1.905,1.9049,1.9048,1.9047,1.9043,1.9044,1.9044,1.9065,0,0,1.9046,1.9047,0,0,0,0,0,0,0,0,1.9065,1.9066,1.9066,1.9065,1.9064,1.9061,1.9067,1.907,1.905,1.9055,1.9048,1.9047,1.905,1.905,1.9051,1.9065,1.9065,1.9046,1.9047,1.9047,1.9047,0,0,0,0,0,0,0,1.9065,1.9066,1.9075,1.9066,1.9065,1.9059,1.9059,1.9067,1.9057,1.9054,1.9053,1.9053,1.9049,1.9051,1.9051,1.9065,1.9046,1.9047,1.9047,1.9047,1.9097,1.9098,0,0,0,0,0,0,1.9067,1.9066,1.9075,1.9075,1.9063,1.906,1.906,1.9063,1.9057,1.9055,1.9053,1.9052,1.905,1.905,1.9051,1.9075,1.9047,1.9048,1.9048,1.9096,1.9097,1.9098,0,0,0,0,0,0,1.9066,1.9068,1.9075,1.907,1.9071,1.9061,1.9065,1.9063,1.9065,1.9056,1.9054,1.9057,1.9049,1.905,1.9062,1.9075,1.9048,1.9048,1.9095,1.9097,1.9098,1.9125,0,0,0,0,0,0,1.9066,1.9068,1.9075,1.907,1.9071,1.9087,1.9066,1.9064,1.9066,1.9063,1.9059,1.9057,1.9049,1.9061,1.9063,1.9075,1.9049,1.9094,1.9096,1.9097,1.9123,1.9127,1.9131,0,0,0,0,0,1.9066,1.9082,1.9076,1.9077,1.908,1.9088,1.9088,1.9078,1.9067,1.9075,1.907,1.9057,1.9074,1.9063,1.9064,1.9077,1.9093,1.9095,1.9097,1.9121,1.9126,1.9131,0,0,0,0,0,0,1.9088,1.9081,1.9074,1.909,1.909,1.9084,1.9093,1.9084,1.9086,1.9084,1.9071,1.907,1.9085,1.9082,1.907,1.9098,1.9081,1.9084,1.9099,1.9104,1.9108,1.9108,1.9049,0,0,0,0,0,1.9095,1.9102,1.9096,1.911,1.911,1.9102,1.9105,1.9097,1.9096,1.9096,1.9092,1.9091,1.9097,1.91,1.9104,1.9123,1.9122,1.9132,1.9136,1.914,1.9142,1.9153,1.9157,1.9105,1.9105,1.9105,0,0,1.9109,1.9106,1.9111,1.9114,1.9113,1.9121,1.9102,1.911,1.9116,1.9097,1.9109,1.9106,1.9105,1.9121,1.9128,1.9119,1.9156,1.9142,1.9145,1.9145,1.9155,1.916,1.9165,1.9107,1.9107,1.9106,0,0,1.9139,1.9137,1.9149,1.9149,1.9148,1.9143,1.9146,1.9142,1.914,1.9152,1.9139,1.9145,1.9154,1.9154,1.9155,1.9187,1.9176,1.9189,1.9209,1.922,1.9224,1.9228,1.924,1.9244,1.9191,1.9191,1.9191,0,1.9156,1.9167,1.9157,1.9167,1.9169,1.9154,1.9166,1.9167,1.9167,1.9169,1.916,1.9172,1.917,1.9186,1.9194,1.9195,1.9199,1.9189,1.9224,1.9228,1.9231,1.9242,1.9247,1.9193,1.9193,1.9192,1.9192,0,1.9189,1.9197,1.9207,1.9209,1.9212,1.9223,1.9215,1.922,1.9213,1.9209,1.9222,1.9219,1.9223,1.9227,1.9219,1.9243,1.9238,1.9227,1.921,1.9238,1.9248,1.9252,1.9195,1.9194,1.9194,1.9194,0,0,1.923,1.9228,1.9232,1.9234,1.9232,1.9238,1.925,1.9254,1.9259,1.926,1.927,1.9279,1.9269,1.927,1.9263,1.9273,1.9299,1.9261,1.926,1.9268,1.9326,1.9334,1.9339,1.9293,1.9293,1.9294,1.9326,0,1.9259,1.9278,1.927,1.929,1.9298,1.9285,1.9294,1.9295,1.9292,1.9298,1.9295,1.9302,1.9288,1.9289,1.9298,1.9294,1.9311,1.9292,1.9301,1.9302,1.9302,1.9345,1.9353,1.9383,1.933,1.9331,1.9331,0,1.9295,1.9299,1.9319,1.9319,1.9322,1.9331,1.9335,1.9341,1.9342,1.9339,1.9342,1.9333,1.9345,1.9329,1.9345,1.9332,1.9336,1.9335,1.9336,1.9336,1.9318,1.9346,1.9393,1.9398,1.9338,1.9337,1.9337,0,1.9324,1.9335,1.9349,1.935,1.9349,1.9356,1.9356,1.9356,1.936,1.9364,1.9367,1.9372,1.9375,1.9379,1.9373,1.9361,1.939,1.9373,1.9388,1.9388,1.9394,1.9394,1.9442,1.9397,1.9397,1.9397,1.9397,0,1.9357,1.937,1.9362,1.9371,1.9386,1.9377,1.9392,1.9391,1.9392,1.94,1.9389,1.9397,1.9388,1.9395,1.939,1.9405,1.9406,1.9404,1.9403,1.9405,1.9405,1.9407,1.9405,1.9398,1.9398,1.9397,1.9397,0,1.9391,1.9386,1.9401,1.94,1.94,1.9411,1.941,1.9418,1.9415,1.9426,1.9428,1.9423,1.9432,1.9426,1.9434,1.9431,1.945,1.9445,1.945,1.9449,1.9464,1.9463,1.9515,1.9522,1.9472,1.9473,1.9473,0,1.9412,1.9423,1.9423,1.9428,1.9429,1.9438,1.9442,1.9435,1.944,1.9443,1.9451,1.9459,1.9464,1.9479,1.9476,1.9483,1.9478,1.9496,1.9479,1.9482,1.9479,1.9478,1.948,1.9499,1.95,1.95,1.9501,0,1.9451,1.9448,1.9455,1.9462,1.9467,1.9472,1.9476,1.9481,1.9473,1.948,1.9489,1.9493,1.9503,1.9511,1.9517,1.9517,1.9508,1.9506,1.951,1.9513,1.9515,1.9515,1.9459,1.9505,1.9505,1.9504,1.9504,1.9504,1.9479,1.9488,1.9491,1.9499,1.9501,1.9505,1.9514,1.9512,1.952,1.9527,1.9522,1.9533,1.9536,1.9543,1.9544,1.9553,1.9546,1.9551,1.9553,1.9554,1.9557,1.9514,1.9554,1.9554,1.9554,1.9554,1.9554,0,1.9517,1.9519,1.9526,1.9533,1.954,1.9532,1.9536,1.9542,1.9552,1.9555,1.9562,1.9573,1.9581,1.958,1.9587,1.9595,1.9591,1.9597,1.9596,1.9597,1.9562,1.9559,1.96,1.96,1.96,1.96,1.96,1.96,1.9538,1.9553,1.9551,1.9568,1.9569,1.958,1.9583,1.9587,1.959,1.9603,1.961,1.961,1.9611,1.9619,1.9627,1.9626,1.963,1.9638,1.9636,1.9604,1.9599,1.9595,1.9591,1.9638,1.9638,1.9669,1.9669,1.967]},{"header":{"parameterUnit":"m.s-1","parameterCategory":1,"la1":30.2991,"la2":30.254,"lo1":-89.0895,"lo2":-89.0444,"dy":0.0017,"dx":0.0017,"nx":28,"ny":28,"refTime":"2023-10-14T03:00:00:Z","depth":0,"parameterNumber":3,"parameterNumberName":"V-component_of_WINDS"},"data":[0,0,0,0,0,0,0,0,0,0,0,0,0,0,0,0,0,0,0,0,0,0,0,0,0,0,0,0,0,0,0,0,0,0,0,0,0,0,0,0,0,0,0,0,0,0,0,0,0,0,0,0,0,0,0,0,0,0,-6.4064,-6.4065,0,-6.415,-6.4151,-6.4152,-6.4117,-6.4115,-6.4112,-6.4111,-6.4193,-6.4197,-6.4201,0,0,0,0,0,0,0,0,0,0,0,0,0,-6.3865,-6.3869,-6.4064,-6.4065,-6.4066,-6.415,-6.4151,-6.4153,-6.4117,-6.4114,-6.4112,-6.411,-6.4192,-6.4196,-6.4201,0,0,0,0,0,0,0,0,0,0,0,0,0,-6.3951,-6.387,-6.4064,-6.4059,-6.4059,-6.415,-6.4152,-6.4153,-6.4117,-6.4114,-6.4111,-6.4108,-6.419,-6.4196,-6.4202,-6.4301,0,0,-6.4221,-6.4223,0,0,0,0,0,0,0,0,-6.3946,-6.3958,-6.4059,-6.4059,-6.406,-6.412,-6.4111,-6.4202,-6.4118,-6.4095,-6.4111,-6.4107,-6.4171,-6.4178,-6.4201,-6.4305,-6.4309,-6.4221,-6.4225,-6.4228,-6.4229,0,0,0,0,0,0,0,-6.394,-6.3954,-6.4098,-6.406,-6.4061,-6.4051,-6.406,-6.4128,-6.4149,-6.4097,-6.4095,-6.4106,-6.417,-6.4195,-6.4203,-6.431,-6.4221,-6.4227,-6.423,-6.4233,-6.4502,-6.4505,0,0,0,0,0,0,-6.3935,-6.395,-6.4095,-6.4101,-6.3995,-6.4057,-6.4067,-6.4104,-6.4148,-6.4152,-6.4108,-6.4104,-6.4186,-6.4195,-6.4205,-6.4326,-6.4228,-6.4233,-6.4237,-6.4498,-6.4502,-6.4506,0,0,0,0,0,0,-6.3931,-6.3948,-6.4092,-6.4025,-6.4042,-6.4064,-6.4105,-6.4107,-6.4132,-6.4157,-6.4159,-6.413,-6.4184,-6.4197,-6.4279,-6.4328,-6.4236,-6.4242,-6.4494,-6.4499,-6.4504,-6.4567,0,0,0,0,0,0,-6.3925,-6.3947,-6.3986,-6.4026,-6.4046,-6.4165,-6.4108,-6.4111,-6.4143,-6.4138,-6.4178,-6.4181,-6.4183,-6.427,-6.4285,-6.4335,-6.4247,-6.449,-6.4496,-6.4503,-6.456,-6.4574,-6.4585,0,0,0,0,0,-6.3918,-6.3998,-6.3988,-6.4005,-6.4095,-6.4168,-6.4179,-6.4181,-6.4147,-6.4186,-6.4202,-6.418,-6.432,-6.4278,-6.4295,-6.4348,-6.4486,-6.4494,-6.4502,-6.4555,-6.4571,-6.4584,0,0,0,0,0,0,-6.396,-6.4003,-6.3992,-6.4088,-6.4125,-6.4162,-6.421,-6.4197,-6.4243,-6.4236,-6.4234,-6.4244,-6.4329,-6.4346,-6.4298,-6.4447,-6.4398,-6.441,-6.4433,-6.4448,-6.446,-6.4454,-6.4252,0,0,0,0,0,-6.3981,-6.4038,-6.4072,-6.4153,-6.4173,-6.4189,-6.422,-6.4219,-6.4256,-6.4271,-6.4293,-6.4329,-6.4381,-6.4415,-6.4465,-6.4563,-6.4571,-6.4608,-6.462,-6.463,-6.4639,-6.4694,-6.4711,-6.4532,-6.4531,-6.4531,0,0,-6.4024,-6.4054,-6.409,-6.4162,-6.4191,-6.4249,-6.4202,-6.4265,-6.4308,-6.428,-6.436,-6.4377,-6.4417,-6.4508,-6.4549,-6.4525,-6.4691,-6.4639,-6.4647,-6.4652,-6.4704,-6.4721,-6.4736,-6.4537,-6.4536,-6.4535,0,0,-6.4132,-6.4161,-6.4232,-6.4263,-6.4308,-6.4318,-6.4336,-6.4376,-6.4387,-6.4468,-6.4449,-6.4499,-6.4589,-6.4618,-6.4645,-6.4768,-6.4749,-6.4784,-6.4847,-6.49,-6.4915,-6.4927,-6.4972,-6.4988,-6.4793,-6.4794,-6.4794,0,-6.4178,-6.4267,-6.427,-6.4336,-6.4369,-6.4349,-6.4422,-6.445,-6.4508,-6.4531,-6.4503,-6.4618,-6.4643,-6.4741,-6.4772,-6.4794,-6.4813,-6.4779,-6.4913,-6.4925,-6.4937,-6.498,-6.4996,-6.4798,-6.4797,-6.4797,-6.4796,0,-6.4323,-6.4386,-6.4438,-6.4498,-6.4536,-6.4605,-6.4617,-6.4656,-6.4651,-6.4665,-6.4747,-6.4777,-6.4833,-6.4857,-6.4851,-6.4955,-6.4939,-6.4913,-6.4863,-6.4958,-6.4998,-6.5014,-6.4803,-6.4802,-6.4801,-6.48,0,0,-6.4458,-6.4522,-6.4541,-6.4569,-6.4618,-6.4665,-6.4733,-6.4791,-6.4824,-6.4865,-6.4922,-6.5,-6.4977,-6.5007,-6.5006,-6.5052,-6.5149,-6.502,-6.5021,-6.5044,-6.5267,-6.5287,-6.5306,-6.5138,-6.5141,-6.5143,-6.5264,0,-6.4571,-6.4693,-6.4699,-6.4809,-6.4867,-6.485,-6.491,-6.4946,-6.4961,-6.5011,-6.5026,-6.5082,-6.5046,-6.5065,-6.5111,-6.5128,-6.5194,-6.5119,-6.519,-6.5193,-6.5181,-6.5326,-6.5347,-6.546,-6.5279,-6.5282,-6.5284,0,-6.4718,-6.4768,-6.4885,-6.4929,-6.4953,-6.5006,-6.5061,-6.5109,-6.515,-6.5157,-6.5193,-6.5186,-6.5255,-6.5204,-6.5299,-6.5248,-6.5277,-6.529,-6.5295,-6.5301,-6.5244,-6.5338,-6.5495,-6.5512,-6.5308,-6.5306,-6.5304,0,-6.4807,-6.4902,-6.4985,-6.5009,-6.5062,-6.51,-6.5123,-6.5161,-6.5196,-6.5243,-6.5266,-6.5319,-6.5348,-6.5389,-6.5396,-6.5358,-6.5492,-6.5441,-6.5499,-6.5499,-6.5528,-6.5526,-6.5693,-6.5546,-6.5546,-6.5546,-6.5545,0,-6.4932,-6.5005,-6.5026,-6.5077,-6.5158,-6.5164,-6.5243,-6.5263,-6.5298,-6.5352,-6.5339,-6.539,-6.5396,-6.5448,-6.5453,-6.5532,-6.5544,-6.5552,-6.5552,-6.5554,-6.5553,-6.5573,-6.5565,-6.555,-6.5549,-6.5548,-6.5548,0,-6.5044,-6.5062,-6.5151,-6.5195,-6.5208,-6.5266,-6.5302,-6.5351,-6.5365,-6.5434,-6.545,-6.5472,-6.5533,-6.5544,-6.5614,-6.5618,-6.5713,-6.5705,-6.57,-6.5699,-6.5757,-6.5752,-6.5943,-6.5969,-6.5805,-6.5806,-6.5808,0,-6.5123,-6.518,-6.5231,-6.5267,-6.5294,-6.5352,-6.5389,-6.5396,-6.5435,-6.5487,-6.553,-6.559,-6.5638,-6.5736,-6.5757,-6.5812,-6.5806,-6.5869,-6.5814,-6.5814,-6.5808,-6.5805,-6.5811,-6.588,-6.5881,-6.5883,-6.5884,0,-6.5263,-6.5269,-6.5324,-6.5382,-6.5427,-6.5473,-6.5516,-6.5546,-6.5559,-6.5603,-6.5667,-6.5705,-6.5779,-6.5839,-6.5894,-6.5916,-6.5903,-6.5902,-6.5918,-6.592,-6.5915,-6.592,-6.573,-6.5897,-6.5896,-6.5895,-6.5894,-6.5894,-6.5361,-6.5411,-6.5456,-6.5517,-6.5552,-6.5593,-6.5642,-6.5664,-6.5718,-6.5781,-6.5781,-6.5851,-6.5892,-6.5965,-6.5991,-6.6045,-6.6024,-6.6048,-6.6054,-6.606,-6.6066,-6.5907,-6.6054,-6.6054,-6.6054,-6.6053,-6.6053,0,-6.55,-6.5529,-6.5586,-6.5649,-6.5698,-6.5683,-6.5731,-6.5772,-6.5835,-6.5875,-6.5924,-6.5998,-6.6057,-6.6084,-6.6142,-6.618,-6.6175,-6.6195,-6.6192,-6.6198,-6.6081,-6.6061,-6.6198,-6.6198,-6.6198,-6.6198,-6.6197,-6.6197,-6.5579,-6.5663,-6.5676,-6.5777,-6.5804,-6.5875,-6.5904,-6.5942,-6.5974,-6.6058,-6.6108,-6.6126,-6.6161,-6.6222,-6.6275,-6.6282,-6.6304,-6.6326,-6.633,-6.622,-6.6206,-6.6192,-6.6173,-6.6331,-6.6331,-6.6442,-6.6443,-6.6444]}]]